This is the latest recevied weather packets stored in our database for station/object K1AWR. If no packets are shown the sender has not sent any weather packets the latest 10 day(s).
| Time | Temp. | Humidity | Pressure | Rain* | Wind** | Luminosity | Snow |
|---|---|---|---|---|---|---|---|
| 1777478817 | 18.89° C | 47% | 1014.9 hPa | 0 mm | - | 714 W/m² | - |
| 1777478513 | 17.22° C | 49% | 1014.7 hPa | 0 mm | - | 312 W/m² | - |
| 1777478210 | 17.22° C | 49% | 1014.8 hPa | 0 mm | - | 312 W/m² | - |
| 1777477907 | 17.22° C | 49% | 1014.8 hPa | 0 mm | - | 312 W/m² | - |
| 1777477602 | 16.67° C | 51% | 1014.9 hPa | 0 mm | - | 460 W/m² | - |
| 1777477298 | 16.67° C | 52% | 1014.9 hPa | 0 mm | - | 572 W/m² | - |
| 1777476995 | 17.78° C | 48% | 1015 hPa | 0 mm | - | 468 W/m² | - |
| 1777476693 | 16.67° C | 50% | 1014.9 hPa | 0 mm | - | 319 W/m² | - |
| 1777476389 | 17.22° C | 49% | 1014.9 hPa | 0 mm | - | 361 W/m² | - |
| 1777476087 | 17.22° C | 48% | 1015 hPa | 0 mm | - | 316 W/m² | - |
| 1777475787 | 17.22° C | 46% | 1015.4 hPa | 0 mm | - | 391 W/m² | - |
| 1777475484 | 16.67° C | 51% | 1015.2 hPa | 0 mm | - | 470 W/m² | - |
| 1777475180 | 15.56° C | 51% | 1015.1 hPa | 0 mm | - | 385 W/m² | - |
| 1777474876 | 17.78° C | 47% | 1015.4 hPa | 0 mm | - | 292 W/m² | - |
| 1777474571 | 17.22° C | 50% | 1015.4 hPa | 0 mm | - | 435 W/m² | - |
| 1777474269 | 16.67° C | 49% | 1015.4 hPa | 0 mm | - | 279 W/m² | - |
| 1777473965 | 16.11° C | 50% | 1015.5 hPa | 0 mm | - | 300 W/m² | - |
| 1777473663 | 15.56° C | 51% | 1015.4 hPa | 0 mm | - | 520 W/m² | - |
| 1777473359 | 14.44° C | 56% | 1015.8 hPa | 0 mm | - | 288 W/m² | - |
| 1777473055 | 15° C | 54% | 1015.8 hPa | 0 mm | - | 632 W/m² | - |
| 1777472751 | 15° C | 56% | 1015.9 hPa | 0 mm | - | 171 W/m² | - |
| 1777472448 | 13.89° C | 56% | 1015.8 hPa | 0 mm | - | 412 W/m² | - |
| 1777472146 | 13.33° C | 58% | 1016 hPa | 0 mm | - | 272 W/m² | - |
| 1777471845 | 13.89° C | 56% | 1016.1 hPa | 0 mm | - | 334 W/m² | - |
| 1777471543 | 13.89° C | 59% | 1016.2 hPa | 0 mm | - | 420 W/m² | - |
* Rain latest hour (hover to see other rain measurements)
** Current wind speed in m/s (hover to see current wind gust speed)